Probability
0 0 0 0 0 0 0 0 0 0 0 0 0 0 0 0 0 0 0 0 0 0 0 0 0 0 0 0 0 0 0 0 0 0 0 0 0 0 0 0 0 0 0
0 0 0 0 0 0 0 0 0 0 0 0 0 0 0 0 0 0 0 0 0 0 0 0 0 0 0 0 0 0 0 0 0 0 0 0 0 0 0 0 0 0 0
0 0 0 0 0 0 0 0 0 0 0 0 0 0 0 0 0 0 0 0 0 0 0 0 0 0 0 0 0 0 0 0 0 0 0 0 0 0 0 0 0 0 0
0 0 0 0 0 0 0 0 0 0 0 0 0 0 0 0 0 0 0 0 0 0 0 0 0 0 0 0 0 0 0 0 0 0 0 0 0 0 0 0 0 0 0
0 0 0 0 0 0 0 0 0 0 0 0 0 0 0 0 0 0 0 0 0 0 0 0 0 0 0 0 0 0 0 0 0 0 0 0 0 0 0 0 0 0 0
0 0 0 0 0 0 0 0 0 0 0 0 0 0 0 0 0 0 0 0 0 0 0 0 0 0 0 0 0 0 0 0 0 0 0 0 0 0 0 0 0 0 0
0 0 0 0 0 0 0 0 0 0 0 0 0 0 0 0 0 0 0 0 0 0 0 0 0 0 0 0 0 0 0 0 0 0 0 0 0 0 0 0 0 0 0
0 0 0 0 0 0 0 0 0 0 0 0 0 0 0 0 0 0 0 0 0 0 0 0 0 0 0 0 0 0 0 0 0 0 0 0 0 0 0 0 0 0 0
0 0 0 0 0 0 0 0 0 0 0 0 0 0 0 0 0 0 0 0 0 0 0 0 0 0 0 0 0 0 0 0 0 0 0 0 0 0 0 0 0 0 0
0 0 0 0 0 0 0 0 0 0 0 0 0 0 0 0 0 0 0 0 0 0 0 0 0 0 0 0 0 0 0 0 0 0 0 0 0 0 0 0 0 0 0
0 0 0 0 0 0 0 0 0 0 0 0 0 0 0 0 0 0 0 0 0 0 0 0 0 0 0 0 0 0 0 0 0 0 0 0 0 0 0 0 0 0 0
0 0 0 0 0 0 0 0 0 0 0 0 0 0 0 0 0 0 0 0 0 0 0 0 0 0 0 0 0 0 0 0 0 0 0 0 0 0 0 0 0 0 0
0 0 0 0 0 0 0 0 0 0 0 0 0 0 0 0 0 0 0 0 0 0 0 0 0 0 0 0 0 0 0 0 0 0 0 0 0 0 0 0 0 0 0
0 0 0 0 0 0 0 0 0 0 0 0 0 0 0 0 0 0 0 0 0 0 0 0 0 0 0 0 0 0 0 0 0 0 0 0 0 0 0 0 0 0 0
0 0 0 0 0 0 0 0 0 0 0 0 0 0 0 0 0 0 0 0 0 0 0 0 0 0 0 0 0 0 0 0 0 0 0 0 0 0 0 0 0 0 0
0 0 0 0 0 0 0 0 0 0 0 0 0 0 0 0 0 0 0 0 0 0 0 0 0 0 0 0 0 0 0 0 0 0 0 0 0 0 0 0 0 0 0
0 0 0 0 0 0 0 0 0 0 0 0 0 0 0 0 0 0 0 0 0 0 0 0 0 0 0 0 0 0 0 0 0 0 0 0 0 0 0 0 0 0 0
0 0 0 0 0 0 0 0 0 0 0 0 0 0 0 0 0 0 0 0 0 0 0 0 0 0 0 0 0 0 0 0 0 0 0 0 0 0 0 0 0 0 0
0 0 0 0 0 0 0 0 0 0 0 0 0 0 0 0 0 0 0 0 0 0 0 0 0 0 0 0 0 0 0 0 0 0 0 0 0 0 0 0 0 0 0
0 0 0 0 0 0 0 0 0 0 0 0 0 0 0 0 0 0 0 0 0 0 0 0 0 0 0 0 0 0 0 0 0 0 0 0 0 0 0 0 0 0 0
0 0 0 0 0 0 0 0 0 0 0 0 0 0 0 0 0 0 0 0 0 0 0 0 0 0 0 0 0 0 0 0 0 0 0 0 0 0 0 0 0 0 0
0 0 0 0 0 0 0 0 0 0 0 0 0 0 0 0 0 0 0 0 0 0 0 0 0 0 0 0 0 0 0 0 0 0 0 0 0 0 0 0 0 0 0
0 0 0 0 0 0 0 0 0 0 0 0 0 0 0 0 0 0 0 0 0 0 0 0 0 0 0 0 0 0 0 0 0 0 0 0 0 0 0 0 0 0 0
0 0 0 0 0 0 0 0 0 0 0 0 0 0 0 0 0 0 0 0 0 0 0 0 0 0 0 0 0 0 0 0 0 0 0 0 0 0 0 0 0 0 0
0 0 0 0 0 0 0 0 0 0 0 0 0 0 0 0 0 0 0 0 0 0 0 0 0 0 0 0 0 0 0 0 0 0 0 0 0 0 0 0 0 0 0
0 0 0 0 0 0 0 0 0 0 0 0 0 0 0 0 0 0 0 0 0 0 0 0 0 0 0 0 0 0 0 0 0 0 0 0 0 0 0 0 0 0 0
Height
5680 5687 5693 5700 5706 5711 5716 5720 5724 5728 5731 5734 5736 5737 5739 5740 5740 5740 5740 5739 5738 5736 5734 5732 5730 5727 5724 5720 5717 5712 5708 5703 5699 5693 5687 5681 5674 5667 5659 5651 5643 5634 5625
5670 5677 5683 5690 5696 5701 5707 5711 5715 5719 5722 5725 5727 5729 5731 5731 5732 5732 5732 5731 5730 5728 5726 5724 5722 5719 5716 5712 5708 5704 5699 5695 5690 5685 5678 5671 5664 5657 5649 5641 5632 5623 5614
5659 5666 5673 5679 5686 5692 5697 5702 5706 5710 5713 5716 5718 5720 5722 5723 5724 5724 5723 5723 5721 5720 5718 5716 5714 5711 5708 5704 5700 5695 5691 5686 5681 5675 5669 5662 5655 5647 5639 5630 5620 5611 5601
5648 5656 5663 5670 5676 5682 5687 5692 5697 5701 5704 5707 5709 5711 5713 5714 5715 5715 5715 5714 5713 5712 5710 5708 5706 5703 5699 5695 5691 5687 5682 5677 5672 5666 5660 5652 5645 5637 5628 5619 5610 5599 5590
5638 5646 5654 5660 5666 5672 5677 5682 5687 5691 5695 5698 5700 5702 5704 5705 5706 5706 5706 5706 5704 5703 5702 5700 5697 5694 5690 5687 5683 5678 5673 5668 5663 5657 5650 5643 5635 5626 5618 5608 5599 5589 5578
5627 5636 5643 5650 5656 5662 5668 5673 5677 5681 5685 5688 5691 5693 5695 5696 5697 5698 5697 5697 5696 5695 5693 5691 5688 5685 5682 5678 5674 5669 5665 5660 5654 5648 5641 5633 5625 5616 5607 5597 5587 5578 5569
5617 5625 5632 5639 5645 5652 5657 5662 5667 5672 5675 5678 5681 5684 5686 5687 5688 5688 5688 5688 5687 5686 5684 5682 5680 5677 5673 5670 5665 5661 5656 5650 5645 5639 5631 5623 5615 5607 5598 5588 5577 5566 5556
5607 5615 5622 5629 5636 5642 5647 5653 5658 5662 5665 5669 5672 5674 5677 5678 5679 5679 5679 5679 5678 5677 5675 5673 5671 5668 5664 5661 5657 5652 5647 5641 5636 5629 5622 5613 5604 5595 5586 5577 5566 5556 5545
5597 5604 5612 5619 5626 5632 5638 5643 5648 5652 5656 5660 5663 5665 5667 5669 5670 5670 5670 5670 5669 5668 5667 5665 5662 5659 5656 5652 5648 5644 5639 5633 5626 5619 5611 5603 5594 5585 5576 5567 5557 5547 5538
5587 5595 5602 5609 5616 5623 5629 5634 5638 5643 5647 5650 5653 5656 5658 5660 5661 5661 5661 5661 5661 5660 5658 5656 5654 5651 5647 5643 5640 5635 5630 5624 5617 5610 5602 5593 5584 5575 5566 5557 5548 5539 5529
5577 5585 5592 5599 5606 5613 5619 5624 5629 5633 5637 5641 5645 5647 5650 5651 5652 5652 5652 5653 5652 5651 5649 5648 5645 5642 5639 5635 5631 5627 5621 5615 5608 5601 5593 5584 5575 5566 5557 5548 5539 5530 5520
5568 5576 5583 5590 5597 5603 5609 5615 5620 5624 5628 5632 5636 5638 5641 5642 5643 5644 5644 5644 5644 5643 5641 5639 5637 5633 5630 5627 5623 5618 5612 5606 5599 5591 5583 5575 5566 5557 5548 5539 5530 5521 5512
5559 5567 5574 5582 5588 5595 5601 5606 5611 5616 5620 5624 5627 5630 5632 5634 5635 5635 5636 5635 5635 5634 5632 5630 5628 5625 5622 5618 5614 5609 5604 5597 5590 5582 5574 5566 5558 5549 5540 5531 5521 5512 5503
5551 5559 5566 5573 5580 5586 5592 5598 5603 5607 5612 5615 5619 5621 5623 5625 5626 5627 5627 5627 5626 5625 5624 5622 5620 5617 5614 5610 5606 5601 5595 5588 5581 5573 5565 5557 5549 5541 5532 5523 5513 5504 5495
5543 5551 5558 5565 5572 5578 5584 5590 5595 5600 5604 5607 5610 5613 5615 5617 5618 5619 5619 5618 5618 5617 5616 5614 5612 5609 5606 5602 5597 5592 5586 5579 5572 5565 5557 5549 5541 5532 5523 5514 5506 5496 5487
5535 5543 5551 5557 5564 5570 5576 5581 5586 5591 5595 5599 5602 5604 5606 5608 5609 5610 5610 5610 5610 5609 5608 5606 5604 5601 5598 5594 5589 5584 5578 5571 5564 5556 5549 5541 5533 5524 5515 5506 5498 5489 5480
5529 5536 5543 5550 5557 5563 5569 5574 5579 5583 5587 5590 5593 5596 5598 5600 5601 5602 5602 5602 5602 5601 5600 5598 5596 5593 5589 5585 5580 5575 5569 5562 5555 5548 5540 5533 5524 5516 5507 5498 5489 5481 5472
5521 5529 5536 5543 5550 5556 5562 5567 5571 5576 5580 5583 5586 5588 5590 5592 5593 5594 5594 5594 5594 5593 5592 5590 5588 5585 5581 5577 5572 5567 5561 5554 5547 5540 5532 5524 5516 5507 5499 5490 5482 5473 5464
5515 5522 5529 5536 5542 5549 5554 5559 5564 5568 5572 5575 5578 5580 5582 5583 5585 5586 5586 5587 5586 5585 5584 5582 5580 5577 5573 5569 5564 5558 5552 5546 5538 5531 5524 5516 5507 5499 5491 5482 5474 5466 5457
5509 5516 5523 5530 5536 5542 5547 5552 5556 5560 5564 5567 5570 5573 5574 5576 5577 5578 5579 5579 5579 5578 5576 5574 5572 5569 5565 5560 5555 5550 5544 5537 5530 5523 5515 5507 5499 5491 5483 5475 5467 5459 5450
5503 5510 5517 5523 5529 5535 5541 5546 5550 5553 5557 5560 5563 5565 5567 5569 5570 5571 5571 5571 5571 5570 5568 5566 5564 5561 5557 5552 5547 5542 5535 5529 5522 5514 5507 5499 5491 5483 5475 5467 5460 5452 5444
5497 5504 5511 5517 5523 5529 5534 5539 5543 5547 5550 5553 5555 5558 5560 5561 5562 5563 5564 5564 5563 5562 5561 5559 5556 5553 5549 5544 5539 5533 5527 5520 5513 5506 5499 5491 5483 5475 5468 5460 5453 5445 5438
5492 5499 5505 5511 5517 5523 5528 5532 5536 5540 5543 5546 5549 5551 5553 5554 5555 5556 5557 5556 5555 5554 5553 5551 5548 5545 5540 5536 5530 5525 5518 5512 5505 5498 5490 5482 5475 5467 5460 5453 5446 5439 5433
5486 5493 5500 5506 5511 5517 5521 5526 5530 5533 5537 5540 5542 5544 5546 5547 5548 5549 5549 5549 5548 5547 5545 5543 5540 5536 5532 5527 5522 5516 5510 5503 5496 5489 5482 5475 5467 5460 5454 5447 5440 5434 5427
5481 5488 5495 5500 5506 5511 5515 5519 5523 5527 5530 5533 5536 5538 5539 5541 5541 5542 5542 5542 5541 5539 5537 5535 5532 5528 5524 5519 5514 5508 5501 5495 5488 5481 5474 5467 5460 5454 5447 5441 5434 5428 5422
5477 5483 5489 5495 5500 5505 5509 5513 5517 5521 5524 5527 5529 5531 5533 5534 5535 5535 5535 5534 5533 5532 5530 5527 5524 5520 5516 5511 5505 5499 5493 5486 5480 5473 5466 5459 5453 5447 5441 5434 5428 5422 5417
Wind_Speed
50 48 47 45 44 43 42 40 39 39 38 37 37 35 35 34 34 34 34 35 35 35 35 36 36 37 37 38 40 41 42 43 43 44 45 47 48 50 52 54 55 57 59
51 49 48 46 45 44 43 42 40 39 39 38 38 37 36 35 35 35 35 35 36 36 36 36 36 37 38 39 40 41 42 43 44 44 46 48 49 51 53 55 57 58 60
52 50 49 48 46 45 44 43 42 41 39 39 39 38 36 36 36 36 35 36 36 36 36 36 37 37 38 40 41 42 43 44 44 45 46 48 50 52 54 56 58 60 61
53 51 49 48 47 45 44 43 42 41 41 40 39 38 37 36 36 36 36 36 36 36 36 37 37 38 39 40 41 42 43 43 45 46 47 49 51 54 55 57 59 60 61
52 52 49 47 46 45 45 44 43 42 42 41 40 38 37 36 36 36 35 35 35 36 36 37 37 38 39 40 40 41 42 43 45 46 47 50 52 55 56 58 59 59 60
51 50 50 49 47 46 45 44 44 43 42 42 41 39 37 36 36 36 36 35 35 36 36 36 37 38 39 39 40 41 42 44 45 47 48 51 53 55 56 57 58 59 59
51 50 50 49 47 46 45 44 43 42 42 41 39 38 37 37 36 36 36 36 36 36 36 36 37 37 38 39 40 41 42 44 45 47 50 52 53 54 56 57 57 58 57
51 50 49 49 48 46 45 44 43 41 40 38 37 37 37 36 36 36 36 36 35 35 35 36 36 36 38 39 39 41 42 44 46 48 50 52 53 54 55 56 56 56 55
50 49 49 48 47 46 45 43 41 40 38 37 37 37 36 35 35 35 35 35 34 35 35 35 35 36 37 38 39 41 42 44 46 48 50 52 53 55 55 55 54 54 53
50 49 48 47 46 45 44 41 40 38 37 37 37 36 35 35 34 34 34 34 34 34 34 34 35 36 37 38 39 40 41 43 46 49 51 52 53 54 53 53 53 52 52
49 48 47 47 46 44 43 41 39 39 38 37 36 35 35 34 33 33 33 33 33 33 33 34 34 35 36 37 38 39 41 44 47 49 50 51 52 52 52 52 52 52 52
48 48 47 46 45 43 42 40 39 39 37 36 35 34 33 33 32 33 32 32 32 32 33 33 34 34 35 37 38 39 42 44 47 49 50 50 51 51 51 51 52 52 52
48 47 46 45 44 42 41 40 38 37 36 35 34 33 32 32 32 31 31 32 32 32 32 33 33 34 35 36 38 40 42 45 47 48 48 48 49 50 51 51 52 52 51
47 46 45 43 42 41 40 38 37 35 34 34 34 33 32 32 31 31 30 31 31 32 32 32 33 34 35 36 38 40 42 45 46 47 47 48 49 50 50 51 51 51 51
46 46 44 43 41 40 38 37 36 35 33 32 32 32 32 32 31 31 30 30 31 31 32 33 33 33 34 35 37 40 42 44 46 46 46 48 49 50 50 50 50 50 50
45 44 43 42 41 40 38 36 35 34 33 32 32 32 32 32 31 31 30 30 31 32 31 31 31 32 33 35 38 40 42 44 45 45 46 47 49 50 50 50 50 49 49
43 42 42 41 40 38 36 34 33 33 33 32 32 31 30 30 30 30 29 29 30 29 29 29 30 32 34 36 38 40 42 44 45 45 46 48 49 50 50 49 49 49 50
43 42 41 40 39 37 35 34 33 32 32 31 31 30 28 28 29 29 29 28 28 28 28 29 30 32 34 35 38 40 42 43 44 45 46 48 49 49 49 48 48 49 49
41 40 39 38 37 36 34 33 33 32 32 31 30 29 27 28 28 28 28 28 27 28 28 29 30 32 34 36 38 40 41 43 44 45 46 48 49 49 48 47 47 48 46
39 38 38 36 35 35 34 33 31 31 31 30 29 28 27 27 27 27 27 27 27 27 28 29 30 32 34 36 38 40 41 43 44 45 46 47 48 48 46 46 46 45 44
39 37 36 35 34 33 33 32 30 30 29 28 27 27 27 27 27 26 26 26 27 27 28 29 31 32 34 36 38 39 41 43 44 45 46 47 47 46 45 45 44 43 41
37 37 36 34 33 33 32 31 29 28 27 27 26 26 25 25 24 24 25 26 26 27 28 29 30 32 33 36 38 40 41 43 43 45 46 47 47 45 44 43 42 41 39
37 37 36 35 34 33 31 29 28 27 27 27 26 25 25 24 24 24 24 25 26 27 28 29 30 32 34 36 38 40 42 43 43 45 47 46 45 43 41 40 40 39 38
36 36 35 34 32 31 30 29 28 27 27 26 25 24 24 23 23 23 23 24 25 26 28 29 30 32 34 37 38 40 41 43 44 45 46 45 43 40 39 39 38 37 36
35 34 32 32 31 30 29 29 28 27 26 25 24 23 22 22 22 23 23 24 26 27 28 29 31 33 35 37 39 40 42 43 44 45 44 43 40 38 38 37 36 36 34
33 33 32 31 30 29 28 28 27 26 25 24 23 22 22 22 22 23 23 24 26 27 28 29 31 34 36 37 38 40 41 43 43 43 43 41 39 37 37 36 35 35 32
Wind_Direction
225 227 229 231 233 235 236 239 242 245 247 249 252 256 260 263 267 271 274 276 278 280 284 286 289 292 295 298 300 301 302 304 305 306 307 308 310 311 312 312 313 313 313
225 227 229 231 233 235 236 238 241 244 247 250 253 256 260 263 267 270 273 275 277 280 283 286 289 292 295 297 299 301 302 304 305 306 308 309 310 311 312 312 313 313 314
224 226 229 230 232 234 236 238 241 243 247 250 253 256 260 263 266 269 271 274 277 279 283 286 289 291 294 296 298 300 302 304 305 307 308 310 311 312 313 313 313 314 315
224 226 228 230 231 233 235 238 240 243 246 250 253 256 260 263 266 268 271 273 276 278 282 285 288 290 293 295 298 300 302 303 305 307 309 310 312 313 313 314 314 314 315
224 226 228 230 231 232 234 236 239 242 245 248 252 255 259 263 265 268 270 273 276 278 281 285 287 290 293 295 297 300 301 304 306 308 309 311 313 314 314 315 315 316 317
223 224 227 229 231 233 235 237 238 241 244 247 250 254 258 261 264 267 270 272 275 278 282 284 287 290 293 295 298 300 302 305 307 308 311 313 314 314 315 316 317 318 317
223 224 226 228 230 232 234 236 238 241 244 247 249 253 256 259 263 266 269 272 275 278 281 284 286 288 292 296 298 300 303 305 307 310 311 313 314 316 317 318 319 319 319
222 224 226 228 229 230 233 236 238 240 243 246 249 252 255 259 262 265 268 271 274 277 280 283 286 289 293 296 298 301 303 305 308 311 313 314 316 317 318 319 320 321 321
221 223 224 226 228 230 232 233 235 239 242 246 249 252 254 257 261 263 266 270 273 277 280 283 286 290 293 295 298 301 304 307 310 312 313 315 317 318 319 320 321 321 322
220 221 223 224 226 228 230 231 234 236 240 244 248 251 254 256 259 263 266 269 273 277 280 283 287 290 293 296 299 302 305 308 311 313 315 316 317 319 320 321 321 321 322
218 219 220 221 223 225 227 231 233 235 239 242 246 249 252 255 259 263 267 271 274 277 280 284 288 290 293 296 299 303 306 309 312 314 316 317 319 320 321 321 322 322 322
217 218 219 220 222 224 226 228 232 235 238 242 245 248 252 255 259 263 267 269 273 277 281 285 288 290 294 297 301 304 308 311 314 316 317 318 319 321 321 322 322 322 323
216 217 218 219 220 222 225 228 232 236 239 241 244 248 251 255 258 261 265 269 273 278 281 285 287 291 296 299 302 306 310 313 315 317 317 318 320 321 321 321 322 323 323
214 215 216 218 220 223 225 228 231 235 238 241 244 247 250 253 257 260 264 269 273 277 280 284 288 292 296 300 303 307 311 314 316 317 318 319 320 321 321 322 322 323 324
212 213 214 217 219 222 224 228 231 235 238 241 244 247 251 254 257 260 265 269 272 276 280 284 288 293 297 300 304 308 311 314 316 317 318 319 321 321 322 322 323 323 324
211 212 215 217 219 221 225 228 231 234 237 239 242 246 250 254 258 262 265 268 271 276 280 285 289 293 297 301 305 309 312 315 317 318 319 320 321 322 322 322 323 324 325
210 213 215 217 219 222 225 228 231 235 238 240 243 248 252 255 258 261 264 269 273 277 281 286 290 295 299 303 306 310 313 316 317 318 319 320 322 322 322 323 324 324 325
210 212 214 216 218 222 225 228 231 235 238 241 244 247 250 253 257 260 264 269 274 278 283 287 292 297 300 304 308 311 314 317 318 319 320 321 322 322 323 323 324 324 325
210 212 213 215 217 221 224 227 231 234 236 240 243 245 248 252 256 260 266 269 274 279 284 289 293 298 302 305 309 312 315 317 318 319 321 322 322 323 323 323 324 325 326
209 211 212 214 217 221 225 228 231 234 237 240 242 245 249 253 258 262 266 269 275 280 285 290 294 299 303 306 310 313 315 317 319 320 321 322 323 323 323 323 325 326 327
209 211 212 214 217 221 224 227 230 234 236 238 242 246 251 254 258 262 266 270 276 281 286 291 295 300 304 308 311 314 316 318 319 320 322 323 323 323 323 323 325 326 328
210 212 214 217 219 221 223 226 230 234 237 239 243 248 252 255 259 263 267 273 277 282 287 292 297 301 305 309 312 315 317 319 320 321 322 323 323 323 322 324 325 327 328
210 213 216 218 219 221 224 227 231 234 237 240 245 250 254 257 261 265 270 275 280 285 289 294 298 302 307 310 313 316 318 319 320 321 322 323 323 322 323 325 326 327 328
210 213 214 217 219 222 225 228 231 235 238 241 245 250 254 258 263 267 272 277 282 287 291 296 300 304 308 311 314 316 318 319 320 321 323 323 323 323 324 325 326 327 328
210 211 213 216 219 222 225 227 230 235 238 241 246 251 256 261 265 269 273 279 284 289 293 298 302 305 309 313 315 317 319 320 320 321 323 323 323 323 324 325 326 327 327
209 211 214 216 217 220 224 228 231 235 238 242 248 253 259 262 265 270 276 281 286 291 295 299 303 307 311 314 316 317 319 320 321 322 323 322 322 322 323 324 325 326 325